* Astronomy

Members Login
Username 
 
Password 
    Remember Me  
Post Info TOPIC: Asteroid 2011 CV46


L

Posts: 131433
Date:
Asteroid 2011 CV46
Permalink  
 


Orbital elements:
2011 CV46 Earth MOID = 0.0508 AU
Epoch 2011 Feb. 8.0 TT = JDT 2455600.5 MPC
M 351.48377 (2000.0) P Q
n 0.63187317 Peri. 189.96190 -0.87178086 -0.40596573
a 1.3449809 Node 322.03695 +0.47454137 -0.56074561
e 0.2304347 Incl. 26.47168 +0.12169067 -0.72163439
P 1.56 H 24.9 G 0.15 U 8

MPEC 2011 - C74


__________________
Page 1 of 1  sorted by
 
Quick Reply

Please log in to post quick replies.



Create your own FREE Forum
Report Abuse
Powered by ActiveBoard